Humidity-temperature Sensor

Selected Measurement Type: Relative Humidity

 
Relative Humidity [%]     6 entries per hour
Showing data from 3/4/2016 (00:00:00 Z) to 3/3/2016 (00:01:00 Z)
Previous Next [ Day | 3-Days | 7-Days ]
First Last
Prev [ Day | 3-Days | 7-Days ] Next
First Last

Start Time:     :
End Time:     :     
Time (in GMT) :00 :50 :40 :30 :20 :10
Previous Next [ Day | 3-Days | 7-Days ]
First Last
Prev [ Day | 3-Days | 7-Days ] Next
First Last


123 => good data
MM => data is determined as missing
-- => data not received/configured
Back to Top Back to Top
3/4/2016 00:00 to 23:10 87.23 87.65 87.29 87.82 87.95 88.18
3/3/2016 23:00 to 22:10 87.18 87.16 87.44 86.82 88.11 88.41
3/3/2016 22:00 to 21:10 89.81 89.85 89.53 88.62 87.99 85.78
3/3/2016 21:00 to 20:10 85.02 85.47 85.68 85.40 84.20 83.67
3/3/2016 20:00 to 19:10 83.60 83.26 83.64 84.49 84.73 84.56
3/3/2016 19:00 to 18:10 86.02 85.00 87.25 87.97 87.44 86.97
3/3/2016 18:00 to 17:10 87.90 89.32 89.62 89.81 90.83 91.31
3/3/2016 17:00 to 16:10 91.21 89.53 90.40 90.91 91.00 92.71
3/3/2016 16:00 to 15:10 93.11 93.49 92.80 92.73 93.92 94.00
3/3/2016 15:00 to 14:10 94.62 95.72 94.53 93.52 93.45 93.26
3/3/2016 14:00 to 13:10 93.26 93.20 93.07 92.69 92.27 92.27
3/3/2016 13:00 to 12:10 93.33 93.13 93.88 93.69 96.14 97.39
3/3/2016 12:00 to 11:10 98.90 98.58 99.04 98.66 98.09 96.27
3/3/2016 11:00 to 10:10 96.93 97.52 96.78 96.63 97.63 97.24
3/3/2016 10:00 to 9:10 94.60 94.55 95.11 93.79 93.81 95.40
3/3/2016 09:00 to 8:10 94.17 92.48 91.76 91.72 91.99 92.03
3/3/2016 08:00 to 7:10 90.99 90.61 90.80 90.23 88.64 88.71
3/3/2016 07:00 to 6:10 89.47 88.88 88.71 88.50 88.43 89.07
3/3/2016 06:00 to 5:10 89.41 89.26 89.30 89.09 88.33 87.84
3/3/2016 05:00 to 4:10 87.97 88.90 88.28 88.28 87.99 88.05
3/3/2016 04:00 to 3:10 88.09 88.07 87.84 88.62 89.09 93.56
3/3/2016 03:00 to 2:10 93.47 93.98 93.45 94.11 95.46 94.21
3/3/2016 02:00 to 1:10 90.44 81.74 81.02 81.29 81.38 82.35
3/3/2016 01:00 to 0:10 82.35 82.75 82.86 83.62 83.88 84.60